Location: Newark
(45.9456°N, 15.4064°E)
Time: 19:09:05
(UTC+00:00)

Vanguard 3 - Pass Details

Date: 30 January 2020
Orbit: 508 x 3263 km, 33.3° (Epoch: 19 February)

Event Time Altitude Azimuth Distance (km) Brightness Sun altitude
Rises 18:29:50 0° 267° (W) 7,131 13.3 -26.1°
Reaches altitude 10° 18:34:46 10° 263° (W) 6,191 12.6 -26.9°
Maximum altitude 18:53:13 49° 197° (SSW) 3,513 10.3 -30.1°
Enters shadow 19:01:18 30° 144° (SE) 3,824 10.1 -31.5°
Drops below altitude 10° 19:07:04 10° 128° (SE) 4,753 - -32.5°
Sets 19:10:18 0° 123° (ESE) 5,432 - -33.1°
